Vorticity
nan nan nan nan nan nan nan nan nan nan nan nan nan nan nan nan nan nan nan nan nan nan nan nan nan nan nan nan nan nan nan nan nan nan nan nan nan nan nan nan nan nan nan
nan 11 11 9 11 9 9 8 8 8 7 8 9 10 11 10 9 11 11 9 10 9 9 7 9 9 10 11 10 10 11 8 8 9 9 11 10 10 9 9 11 9 nan
nan 9 9 10 12 11 9 7 8 9 9 10 11 8 8 10 11 11 11 9 9 9 10 12 10 10 11 10 10 9 11 11 11 11 10 10 10 12 10 11 10 12 nan
nan 8 8 9 8 13 10 10 9 9 11 9 8 9 9 8 9 8 10 10 11 11 11 9 9 10 11 13 11 11 10 10 13 12 11 10 9 10 10 11 10 11 nan
nan 10 9 10 7 13 12 11 11 10 9 10 8 8 8 8 9 11 10 11 10 10 10 10 9 10 11 13 13 10 12 14 11 10 10 9 8 6 9 10 11 12 nan
nan 14 9 8 8 8 13 10 8 10 9 8 8 9 9 9 9 12 11 11 10 10 10 11 6 8 11 8 12 12 11 12 12 11 10 8 8 9 8 8 9 9 nan
nan 12 10 9 10 6 10 9 10 8 7 8 8 9 10 9 9 8 10 12 10 9 8 9 9 7 7 8 10 13 12 6 7 10 9 10 9 10 10 10 9 10 nan
nan 12 10 7 8 11 10 9 9 9 8 8 9 10 10 8 9 8 7 8 8 8 8 9 7 6 8 8 9 9 7 8 10 10 7 7 9 9 11 11 15 13 nan
nan 10 7 8 10 9 9 9 8 8 8 10 11 10 8 6 6 8 11 9 6 6 6 5 7 6 4 8 7 7 8 14 15 12 10 9 9 10 7 9 12 12 nan
nan 8 9 9 10 10 10 9 9 9 9 10 10 7 8 7 5 6 15 11 6 9 7 8 6 4 6 6 5 4 7 7 6 10 16 17 15 18 10 5 10 11 nan
nan 10 10 11 9 10 11 10 9 9 10 10 9 7 7 7 5 4 10 9 8 7 7 8 14 12 3 6 7 4 6 5 8 11 9 9 9 8 11 9 10 10 nan
nan 11 9 10 10 11 10 9 8 9 9 8 8 7 8 6 8 9 4 5 6 8 7 7 5 5 8 10 7 5 4 8 9 8 10 9 8 7 6 8 11 13 nan
nan 10 11 10 10 11 9 8 8 8 8 9 7 8 9 9 11 9 6 8 4 5 3 7 10 7 9 15 14 6 8 9 8 7 9 10 9 9 9 9 8 10 nan
nan 10 10 10 10 9 9 9 8 9 9 9 8 9 9 9 10 14 14 13 10 10 8 4 13 17 14 12 21 19 7 6 10 11 8 9 10 9 10 11 10 8 nan
nan 8 7 9 10 8 8 10 13 12 14 14 11 12 10 9 6 6 8 7 10 11 14 13 11 12 15 14 12 12 12 11 11 12 12 10 10 10 10 10 10 10 nan
nan 8 9 9 9 9 10 3 4 12 10 6 9 14 10 7 9 5 7 7 4 10 10 9 9 8 9 10 10 11 11 11 10 11 13 12 11 10 10 11 10 10 nan
nan 10 9 10 10 9 10 12 5 2 7 8 5 6 6 2 5 9 10 13 15 12 5 6 8 8 10 11 10 10 11 11 13 12 11 12 11 11 11 9 10 9 nan
nan 9 11 10 10 10 9 10 10 13 10 10 13 14 10 8 6 10 14 11 17 11 4 5 9 11 11 10 11 12 12 11 12 11 11 12 12 11 11 10 9 8 nan
nan 10 11 9 9 10 12 12 7 7 11 11 15 18 16 13 11 13 11 5 8 8 12 11 10 11 11 11 12 12 12 12 12 12 11 11 12 12 11 10 11 12 nan
nan 9 13 11 11 11 8 8 11 8 10 12 11 12 21 12 10 11 4 7 12 11 11 10 10 11 11 12 12 12 12 12 12 13 12 13 12 11 11 11 10 10 nan
nan 9 8 11 10 10 10 9 8 9 12 11 11 12 8 7 10 13 11 11 13 11 11 11 11 12 12 12 12 11 12 11 12 13 12 12 13 12 11 10 10 9 nan
nan 10 9 11 10 11 10 9 9 9 9 9 12 16 6 4 9 10 12 11 12 12 10 11 11 11 12 11 11 11 11 12 12 11 11 12 12 12 12 10 11 10 nan
nan 11 10 10 7 9 11 10 10 11 10 9 9 9 8 9 12 11 11 13 10 10 11 11 12 10 11 11 11 11 12 12 10 10 11 11 11 10 12 12 10 10 nan
nan 11 9 8 11 7 10 9 12 9 9 14 12 10 10 11 9 13 12 10 10 10 11 11 10 10 10 11 10 10 11 10 11 9 10 14 12 9 10 12 9 10 nan
nan 10 9 9 11 11 10 10 10 9 10 12 11 11 9 9 13 11 12 10 10 10 11 12 10 10 8 11 16 8 11 14 10 13 13 9 11 14 14 9 8 11 nan
nan nan nan nan nan nan nan nan nan nan nan nan nan nan nan nan nan nan nan nan nan nan nan nan nan nan nan nan nan nan nan nan nan nan nan nan nan nan nan nan nan nan nan
CAPE
2220 2446 2392 2851 3089 2567 1815 922 1280 1513 1828 1566 1300 1096 876 768 569 385 238 57 27 17 16 25 26 17 2 2 0 4 5 11 13 3 10 17 42 197 241 387 339 495 374
2457 2732 2886 3291 2839 2622 1724 764 1343 1743 1734 1402 1265 977 600 385 244 110 43 18 11 12 10 14 16 4 6 2 0 4 3 2 4 6 3 2 6 18 48 93 56 67 87
3378 2984 3460 2849 2299 1948 1121 1193 1506 1813 1630 1183 963 680 403 147 33 8 2 3 2 1 0 2 4 0 0 0 0 0 0 0 0 0 0 0 0 2 9 11 23 40 47
3019 2957 2058 1461 1602 1313 796 1424 1768 1675 1007 709 366 97 2 0 0 0 0 0 0 0 0 0 0 0 2 3 0 3 2 1 0 0 0 0 0 0 0 0 0 0 0
2076 1740 1041 344 690 998 1328 1750 559 525 393 73 0 0 0 0 0 0 0 0 0 0 0 0 0 0 0 0 0 1 5 0 0 0 0 0 0 2 7 10 2 1 2
1394 1364 861 158 167 1079 1382 512 282 102 6 0 0 0 0 0 0 0 0 0 0 0 0 0 0 0 0 0 0 0 0 0 1 0 0 2 7 10 13 21 24 24 10
881 742 893 339 256 919 201 109 56 4 1 0 0 0 0 0 0 0 0 0 0 0 0 0 0 0 0 0 0 0 0 0 0 1 3 4 6 9 13 18 23 16 35
1406 1398 933 497 748 125 47 41 14 3 0 0 0 0 0 0 0 0 0 0 0 0 0 0 0 0 0 0 0 0 0 0 0 0 0 0 0 1 5 7 8 37 10
539 725 1072 1233 559 301 84 35 6 3 0 0 0 0 0 0 0 0 0 0 0 0 0 0 0 0 0 0 0 0 0 0 0 0 0 0 0 0 0 0 1 2 1
554 654 859 1242 682 410 168 15 4 0 0 0 0 0 0 0 0 0 0 0 0 0 0 0 0 0 0 0 0 0 0 0 0 0 0 1 1 3 0 18 24 17 15
565 987 1157 1314 971 424 40 9 3 0 0 0 0 0 0 0 0 0 0 0 0 0 0 0 0 0 0 0 0 0 0 0 0 0 0 0 0 0 0 6 25 21 21
1360 1294 1163 845 311 81 10 8 1 0 0 0 0 0 0 0 0 0 0 0 0 0 0 0 0 0 0 0 0 0 0 0 0 0 0 0 0 0 0 1 11 22 22
929 724 583 361 207 42 6 4 0 0 0 0 0 0 0 0 0 0 0 0 0 0 0 0 0 0 0 0 0 0 0 0 6 1 0 0 0 0 3 5 3 6 26
759 609 267 166 23 9 1 0 0 0 0 0 0 0 0 0 0 0 0 0 0 0 0 0 0 0 0 0 2 10 18 37 20 12 10 6 4 5 10 15 8 2 1
658 308 99 1 0 0 0 0 0 0 0 0 0 0 0 0 0 0 0 0 0 0 0 0 7 32 26 25 28 26 25 27 27 20 7 8 9 11 14 21 17 12 15
292 104 2 0 0 0 0 0 0 0 0 0 0 0 0 0 0 0 0 0 0 0 0 0 37 81 73 34 25 21 14 14 10 3 6 11 18 19 18 16 23 18 34
148 8 0 0 0 0 0 0 0 0 0 0 0 0 0 0 0 0 0 0 0 0 0 35 98 112 59 31 24 10 3 0 3 2 3 10 17 20 17 24 31 12 27
24 0 0 0 0 0 0 0 0 0 0 0 0 0 0 0 0 0 0 0 3 13 17 99 98 84 29 12 1 0 0 0 0 2 2 9 20 19 15 32 13 5 27
0 0 0 0 0 0 0 0 0 0 0 0 0 0 0 0 0 0 0 9 125 149 150 159 89 12 1 0 0 0 0 0 0 1 7 9 10 10 16 20 11 2 7
0 0 0 0 0 0 0 0 0 0 0 6 18 20 34 16 56 92 72 122 150 212 231 121 1 0 0 0 0 0 0 0 0 1 2 4 8 4 1 12 22 38 46
0 0 0 0 0 0 0 0 0 10 10 14 32 30 0 11 56 83 150 223 318 344 104 0 0 0 0 0 0 0 0 0 2 3 6 7 6 3 4 10 27 30 32
0 0 0 0 0 0 0 1 5 10 22 36 45 16 0 52 76 102 251 335 295 32 0 0 0 0 0 0 0 0 0 0 0 0 0 0 1 4 6 3 2 22 32
0 0 0 0 0 0 0 4 13 25 30 37 51 50 47 67 95 146 236 143 25 0 0 0 0 0 0 0 0 0 0 0 0 0 0 0 0 0 0 0 8 24 48
0 0 0 0 0 2 12 18 18 0 11 19 35 44 75 87 113 114 78 20 0 0 0 0 0 0 0 0 0 0 0 0 0 0 0 0 0 0 0 0 19 9 38
0 0 0 0 2 5 18 19 33 35 37 42 56 74 94 95 106 98 27 0 0 0 0 0 0 0 0 0 0 0 0 0 0 0 0 0 0 0 0 0 24 10 20
0 0 0 3 7 20 22 25 29 34 45 56 64 85 104 152 162 54 7 0 0 0 0 0 0 0 0 0 0 0 0 0 0 0 0 0 0 0 0 0 4 26 47